sat.trackr.live / text

‹ back to catalog

STARLINK-3916

NORAD 52492 · 2022-049AT

PAYLOAD ACTIVE UNKNOWN

§ Identity

Operator
Country
US
Launch date
2022-05-06
Launch site
AFETR
Launch vehicle
Mass (kg)
RCS (m²)

Purposes: comms

External: N2YO · Heavens-Above · Gunter

§ Orbital elements

Epoch: 2026-09-19T14:02:20.467968Z

Period
93.85 min
Inclination
53.1593°
Eccentricity
0.0001644
Mean motion
15.34391178 rev/d
Perigee alt
461.6 km
Apogee alt
463.9 km
Semi-major
6,840.9 km
B*
2.7750e-5
RAAN
247.6482°
Arg perigee
65.6418°
Mean anomaly
294.4756°
Rev number
24,181

§ Raw data

STARLINK-39161 52492U 22049AT  26262.58495912  .00000561  00000+0  27750-4 0  99962 52492  53.1593 247.6482 0001644  65.6418 294.4756 15.34391178241813

JSON: /api/v1/satellites/52492 · /tle

For live sub-satellite position, see the globe view (requires WebGL).

§ Visibility from observer

Set your observer location to see the next 7 days of passes ≥ 10°. The values pass through the URL so the page stays shareable.

No JS? Fill the form by hand. The geolocation button needs JavaScript.